Regional Weather Roundup
Issued by NWS

Home | Current Version | Previous Version | Graphics & Text | Print | Product List | Glossary On
Versions: 1 2 3 4 5 6 7 8 9 10 11 12 13 14 15 16 17 18 19 20 21 22 23 24 25 26 27 28 29 30 31 32 33 34 35 36 37 38 39 40 41 42 43 44 45 46 47 48 49 50
000
ASUS45 KABQ 022101
RWRNM
NEW MEXICO REGIONAL WEATHER ROUNDUP
NATIONAL WEATHER SERVICE ALBUQUERQUE NM
300 PM MDT SUN AUG 02 2015

NOTE: "FAIR" MEANS FEW OR NO CLOUDS BELOW 12,000 FEET AGL WITH NO
       SIGNIFICANT WEATHER OR OBSTRUCTIONS TO VISION.

      THIS PRODUCT IS RELEASED AS TWO VERSIONS.  ONE VERSION NEAR
      THE TOP OF THE HOUR CONTAINING PRELIMINARY DATA FROM ALBUQUERQUE
      AND OTHER STATIONS.  A FINAL VERSION WITH ADDITIONAL DATA IS
      ISSUED ABOUT 10 MINUTES AFTER THE HOUR.

NMZ501-503-504-510>518-022200-
NORTHWEST PLATEAU/NORTHCENTRAL MOUNTAINS

CITY           SKY/WX    TMP DP  RH WIND       PRES   REMARKS
FARMINGTON     SUNNY     80  52  37 W8        30.10F
SANTA FE       CLOUDY    79  52  38 N3        30.17F
TAOS           MOSUNNY   79  48  34 CALM      30.21F
ANGEL FIRE     CLOUDY    59  54  81 NW3       30.37R

$$
NMZ402-403-502-505>509-022200-
WESTCENTRAL MOUNTAINS/SOUTHWEST MOUNTAINS

CITY           SKY/WX    TMP DP  RH WIND       PRES   REMARKS
GALLUP         MOSUNNY   79  50  36 CALM      30.17F
GRANTS         CLOUDY    77  56  48 SE5       30.20F
SILVER CITY      N/A     82  54  36 W3        30.14F

$$
NMZ407-409-411-412-022200-
SOUTHERN DESERTS

CITY           SKY/WX    TMP DP  RH WIND       PRES   REMARKS
DEMING         SUNNY     92  52  25 W9G17     30.04F
HOLLOMAN AFB   SUNNY     95  52  23 NW8       29.98F
ALAMOGORDO     MOSUNNY   93  52  24 SE6G16    30.01F
T OR C         LGT RAIN  79  58  48 W18G24    30.08S

$$
NMZ519>523-022200-
CENTRAL VALLEYS/CENTRAL HIGHLANDS

CITY           SKY/WX    TMP DP  RH WIND       PRES   REMARKS
ALBUQUERQUE    PTSUNNY   82  51  34 SW7       30.12F
DOUBLE EAGLE   PTSUNNY   79  57  47 SW10      30.16F
MORIARTY ARPT    N/A     83  50  31 W3        30.17F
CLINES CORNERS SUNNY     78  54  43 W10       30.21F
BELEN          FAIR      81  52  36 W16G24    30.12S
SOCORRO        NOT AVBL

$$
NMZ524>526-539-540-022200-
SOUTHCENTRAL MOUNTAINS

CITY           SKY/WX    TMP DP  RH WIND       PRES   REMARKS
RUIDOSO          N/A    N/A N/A N/A MISG        N/A

$$
NMZ527>531-022200-
NORTHEAST HIGHLANDS/NORTHEAST PLAINS

CITY           SKY/WX    TMP DP  RH WIND       PRES   REMARKS
RATON          CLOUDY    82  51  34 E9        30.13F
CLAYTON        MOSUNNY   88  59  37 SE8       30.06F

$$
NMZ532>537-022200-
EASTCENTRAL PLAINS

CITY           SKY/WX    TMP DP  RH WIND       PRES   REMARKS
TUCUMCARI      SUNNY     91  60  35 S9        29.98F
CANNON AFB     SUNNY     89  58  34 NW9       30.02F
CLOVIS AIRPORT MOSUNNY   91  57  31 NW6       30.03F

$$
NMZ028-029-538-022200-
SOUTHEAST PLAINS

CITY           SKY/WX    TMP DP  RH WIND       PRES   REMARKS
ROSWELL        CLOUDY    87  57  35 S29G37    29.98R THUNDER
ARTESIA        PTSUNNY   91  59  33 S25       29.98R
CARLSBAD       PTSUNNY   91  57  31 E13G25    29.94F
HOBBS          MOSUNNY   95  59  30 S14       29.98F


$$



USA.gov is the U.S. government's official web portal to all federal, state and local government web resources and services.